Simultaneous Nadir Overpasses (SNOs) Predictions

Prediction of SNOs between GOES-16 and NOAA-19 Satellite Orbit:

Table of predicted SNOs for the next 14.0 days since TLE Epoch: 7/20/2024
Index Date Time (GOES-16) GOES-16 Lat,Lon NOAA-19 Lat,Lon Distance(km) Time Diff (sec)
1 07/21/2024 14:33:44 0.01, -75.21 0.79, -78.73 400.78 80
2 07/22/2024 14:21:25 0.01, -75.22 0.13, -75.73 58.47 80
3 07/23/2024 14:11:46 0.00, -75.23 -0.60, -72.74 284.04 80
4 07/26/2024 02:28:33 0.01, -75.24 -0.50, -77.37 243.07 80
5 07/27/2024 02:18:55 0.01, -75.26 0.22, -74.38 100.06 80
6 07/28/2024 02:06:35 0.00, -75.27 0.88, -71.38 443.30 80
7 07/29/2024 14:35:34 -0.00, -75.30 0.82, -78.98 420.39 80
8 07/30/2024 14:23:14 0.00, -75.31 0.13, -75.99 76.76 80
9 07/31/2024 14:13:34 0.01, -75.33 -0.50, -72.98 267.11 80
10 08/03/2024 02:33:02 -0.01, -75.37 -0.53, -77.62 257.71 80
